JES4373 SASA-SABE

Flight info

Callsign JES4373
Flight time N/A
Altitude 37000
Route PONPI3A PONPI UT681 PUBER UL550 ROS UT672 MULTA UW24 SNT SNT9R
Aircraft A20N/M-SDE2E3FGHIRWXY/LB1

Departure

Time 2026-04-27 23:24
Airport Martín Miguel de Güemes International Airport (SASA)

Arrival

Time N/A
Airport Aeroparque Jorge Newbery (SABE)
Time Latitude Longitude Altitude Speed Heading
2026-04-27 23:08 -24.84520 -65.47793 4017 ft 0 kts 22°
2026-04-27 23:13 -24.84533 -65.47798 4017 ft 2 kts 22°
2026-04-27 23:14 -24.84548 -65.47800 4017 ft 2 kts 324°
2026-04-27 23:14 -24.84562 -65.47790 4017 ft 2 kts 336°
2026-04-27 23:14 -24.84575 -65.47783 4017 ft 1 kts 336°
2026-04-27 23:14 -24.84576 -65.47782 4017 ft 0 kts 336°
2026-04-27 23:16 -24.84574 -65.47783 4017 ft 1 kts 336°
2026-04-27 23:17 -24.84560 -65.47792 4017 ft 3 kts 324°
2026-04-27 23:17 -24.84545 -65.47816 4017 ft 5 kts 296°
2026-04-27 23:17 -24.84527 -65.47855 4017 ft 7 kts 296°
2026-04-27 23:17 -24.84507 -65.47911 4017 ft 9 kts 291°
2026-04-27 23:18 -24.84506 -65.47981 4017 ft 10 kts 255°
2026-04-27 23:18 -24.84529 -65.48063 4017 ft 12 kts 250°
2026-04-27 23:18 -24.84563 -65.48152 4017 ft 13 kts 246°
2026-04-27 23:18 -24.84585 -65.48251 4017 ft 14 kts 251°
2026-04-27 23:19 -24.84630 -65.48343 4017 ft 13 kts 200°
2026-04-27 23:19 -24.84686 -65.48405 4017 ft 12 kts 230°
2026-04-27 23:19 -24.84763 -65.48442 4018 ft 12 kts 182°
2026-04-27 23:19 -24.84849 -65.48467 4018 ft 13 kts 190°
2026-04-27 23:20 -24.84948 -65.48486 4018 ft 16 kts 189°
2026-04-27 23:20 -24.85063 -65.48508 4017 ft 17 kts 192°
2026-04-27 23:20 -24.85187 -65.48537 4017 ft 19 kts 192°
2026-04-27 23:20 -24.85322 -65.48567 4017 ft 21 kts 191°
2026-04-27 23:21 -24.85466 -65.48597 4018 ft 21 kts 191°
2026-04-27 23:21 -24.85586 -65.48642 4019 ft 13 kts 255°
2026-04-27 23:21 -24.85626 -65.48683 4019 ft 7 kts 207°
2026-04-27 23:21 -24.85642 -65.48720 4019 ft 6 kts 218°
2026-04-27 23:22 -24.85670 -65.48758 4019 ft 7 kts 235°
2026-04-27 23:22 -24.85703 -65.48811 4019 ft 9 kts 235°
2026-04-27 23:22 -24.85741 -65.48873 4020 ft 10 kts 235°
2026-04-27 23:22 -24.85787 -65.48945 4020 ft 12 kts 235°
2026-04-27 23:23 -24.85815 -65.48960 4020 ft 2 kts 129°
2026-04-27 23:23 -24.85812 -65.48948 4020 ft 1 kts 63°
2026-04-27 23:23 -24.85807 -65.48944 4020 ft 1 kts 37°
2026-04-27 23:23 -24.85795 -65.48930 4020 ft 5 kts 54°
2026-04-27 23:24 -24.85742 -65.48855 4020 ft 37 kts 50°
2026-04-27 23:24 -24.85408 -65.48388 4020 ft 114 kts 52°
2026-04-27 23:24 -24.84857 -65.47517 4229 ft 148 kts 60°
2026-04-27 23:24 -24.84285 -65.46508 4888 ft 161 kts 56°
2026-04-27 23:25 -24.83604 -65.45515 5675 ft 163 kts 52°
2026-04-27 23:25 -24.82853 -65.44504 6348 ft 181 kts 51°
2026-04-27 23:25 -24.82007 -65.43375 6800 ft 200 kts 51°
2026-04-27 23:25 -24.81102 -65.42149 7307 ft 212 kts 51°
2026-04-27 23:26 -24.80159 -65.40856 7843 ft 224 kts 52°
2026-04-27 23:26 -24.79168 -65.39486 8506 ft 232 kts 52°
2026-04-27 23:26 -24.78164 -65.38091 9366 ft 234 kts 52°
2026-04-27 23:26 -24.77175 -65.36684 10184 ft 238 kts 58°
2026-04-27 23:27 -24.76585 -65.34977 10853 ft 244 kts 84°
2026-04-27 23:27 -24.76780 -65.33111 11490 ft 251 kts 113°
2026-04-27 23:27 -24.77779 -65.31540 12160 ft 254 kts 142°
2026-04-27 23:27 -24.79348 -65.30669 12841 ft 255 kts 172°
2026-04-27 23:28 -24.81099 -65.30718 13511 ft 254 kts 200°
2026-04-27 23:28 -24.82614 -65.31672 14187 ft 252 kts 229°
2026-04-27 23:28 -24.83528 -65.33268 14873 ft 247 kts 255°
2026-04-27 23:28 -24.83790 -65.35119 15582 ft 245 kts 265°
2026-04-27 23:29 -24.83944 -65.36982 16302 ft 244 kts 265°
2026-04-27 23:29 -24.84109 -65.38839 17048 ft 243 kts 264°
2026-04-27 23:29 -24.84291 -65.40690 17754 ft 243 kts 263°
2026-04-27 23:29 -24.84486 -65.42537 18454 ft 243 kts 263°
2026-04-27 23:30 -24.84865 -65.44339 19039 ft 244 kts 246°
2026-04-27 23:30 -24.85815 -65.45897 19608 ft 248 kts 229°
2026-04-27 23:30 -24.87230 -65.47026 20160 ft 258 kts 211°
2026-04-27 23:30 -24.88998 -65.47558 20677 ft 272 kts 191°
2026-04-27 23:31 -24.90940 -65.47361 21146 ft 288 kts 178°
2026-04-27 23:31 -24.92978 -65.46930 21301 ft 308 kts 177°
2026-04-27 23:31 -24.95143 -65.46478 21458 ft 326 kts 178°
2026-04-27 23:31 -24.97434 -65.46021 21606 ft 343 kts 178°
2026-04-27 23:32 -24.99846 -65.45561 21763 ft 360 kts 178°
2026-04-27 23:32 -25.02342 -65.45097 21918 ft 377 kts 178°
2026-04-27 23:32 -25.05021 -65.44604 22080 ft 393 kts 178°
2026-04-27 23:32 -25.07685 -65.44114 22255 ft 408 kts 178°
2026-04-27 23:33 -25.10475 -65.43596 22731 ft 414 kts 178°
2026-04-27 23:33 -25.13357 -65.43053 23358 ft 416 kts 178°
2026-04-27 23:33 -25.16184 -65.42519 23841 ft 420 kts 179°
2026-04-27 23:33 -25.19076 -65.41976 24276 ft 423 kts 179°
2026-04-27 23:34 -25.21987 -65.41432 24685 ft 426 kts 179°
2026-04-27 23:34 -25.24927 -65.40884 25113 ft 429 kts 179°
2026-04-27 23:34 -25.27879 -65.40335 25485 ft 431 kts 179°
2026-04-27 23:34 -25.30850 -65.39783 25830 ft 435 kts 179°
2026-04-27 23:35 -25.33847 -65.39224 26191 ft 438 kts 180°
2026-04-27 23:35 -25.36863 -65.38662 26553 ft 441 kts 180°
2026-04-27 23:35 -25.39898 -65.38096 26900 ft 444 kts 180°
2026-04-27 23:35 -25.42952 -65.37526 27254 ft 446 kts 180°
2026-04-27 23:36 -25.46028 -65.36951 27601 ft 449 kts 180°
2026-04-27 23:36 -25.49123 -65.36373 27925 ft 452 kts 180°
2026-04-27 23:36 -25.52235 -65.35792 28274 ft 455 kts 180°
2026-04-27 23:36 -25.55365 -65.35211 28543 ft 459 kts 180°
2026-04-27 23:37 -25.58528 -65.34627 28824 ft 461 kts 180°
2026-04-27 23:37 -25.61702 -65.34040 29147 ft 463 kts 181°
2026-04-27 23:37 -25.64881 -65.33450 29447 ft 466 kts 181°
2026-04-27 23:37 -25.68042 -65.32865 29721 ft 468 kts 181°
2026-04-27 23:38 -25.71262 -65.32267 30016 ft 470 kts 181°
2026-04-27 23:38 -25.74504 -65.31649 30292 ft 475 kts 179°
2026-04-27 23:38 -25.77740 -65.30769 30572 ft 485 kts 173°
2026-04-27 23:38 -25.80969 -65.29644 30869 ft 488 kts 172°
2026-04-27 23:39 -25.84208 -65.28470 31082 ft 492 kts 172°
2026-04-27 23:39 -25.87465 -65.27264 31353 ft 493 kts 172°
2026-04-27 23:39 -25.90708 -65.26054 31712 ft 491 kts 172°
2026-04-27 23:39 -25.93944 -65.24846 32101 ft 490 kts 172°
2026-04-27 23:40 -25.97175 -65.23642 32466 ft 489 kts 172°
2026-04-27 23:40 -26.00397 -65.22444 32836 ft 488 kts 172°
2026-04-27 23:40 -26.03560 -65.21269 33173 ft 487 kts 172°
2026-04-27 23:40 -26.06769 -65.20077 33504 ft 486 kts 172°
2026-04-27 23:41 -26.09972 -65.18887 33849 ft 485 kts 172°
2026-04-27 23:41 -26.13165 -65.17702 34173 ft 483 kts 172°
2026-04-27 23:41 -26.16353 -65.16520 34445 ft 483 kts 172°
2026-04-27 23:41 -26.19540 -65.15339 34686 ft 483 kts 173°
2026-04-27 23:42 -26.22730 -65.14157 34895 ft 483 kts 173°
2026-04-27 23:42 -26.25919 -65.12975 35135 ft 483 kts 173°
2026-04-27 23:42 -26.28027 -65.12193 35287 ft 483 kts 173°
2026-04-27 23:42 -26.31221 -65.11008 35514 ft 483 kts 173°
2026-04-27 23:43 -26.34407 -65.09824 35730 ft 483 kts 173°
2026-04-27 23:43 -26.38633 -65.08252 36040 ft 483 kts 173°
2026-04-27 23:43 -26.40789 -65.07450 36168 ft 483 kts 173°
2026-04-27 23:43 -26.43974 -65.06265 36390 ft 482 kts 173°
2026-04-27 23:44 -26.49235 -65.04309 36615 ft 482 kts 173°
2026-04-27 23:44 -26.52419 -65.03122 36801 ft 483 kts 173°
2026-04-27 23:44 -26.55559 -65.01951 36944 ft 484 kts 173°
2026-04-27 23:45 -26.61979 -64.99557 36948 ft 483 kts 173°
2026-04-27 23:45 -26.68181 -64.97233 36947 ft 481 kts 174°
2026-04-27 23:46 -26.74545 -64.94858 36941 ft 482 kts 174°
2026-04-27 23:46 -26.80883 -64.92489 36944 ft 482 kts 174°
2026-04-27 23:47 -26.87244 -64.90110 36946 ft 482 kts 174°
2026-04-27 23:47 -26.93563 -64.87743 36954 ft 482 kts 174°
2026-04-27 23:48 -26.99932 -64.85355 36956 ft 483 kts 174°
2026-04-27 23:48 -27.06300 -64.82964 36968 ft 483 kts 174°
2026-04-27 23:49 -27.12665 -64.80571 36966 ft 482 kts 174°
2026-04-27 23:49 -27.19031 -64.78176 36965 ft 482 kts 174°
2026-04-27 23:50 -27.25231 -64.75839 36960 ft 482 kts 174°
2026-04-27 23:50 -27.31546 -64.73457 36956 ft 482 kts 174°
2026-04-27 23:51 -27.37911 -64.71053 36952 ft 482 kts 174°
2026-04-27 23:51 -27.44265 -64.68649 36953 ft 482 kts 174°
2026-04-27 23:52 -27.50620 -64.66229 36952 ft 484 kts 172°
2026-04-27 23:52 -27.56819 -64.62973 36961 ft 502 kts 160°
2026-04-27 23:53 -27.62814 -64.58903 36968 ft 503 kts 159°
2026-04-27 23:53 -27.68795 -64.54820 36968 ft 502 kts 159°
2026-04-27 23:54 -27.74778 -64.50772 36964 ft 502 kts 159°
2026-04-27 23:54 -27.80778 -64.46726 36954 ft 501 kts 159°
2026-04-27 23:55 -27.86767 -64.42685 36959 ft 501 kts 159°
2026-04-27 23:55 -27.92745 -64.38646 36963 ft 500 kts 159°
2026-04-27 23:56 -27.98679 -64.34632 36962 ft 500 kts 159°
2026-04-27 23:56 -28.04647 -64.30590 36965 ft 499 kts 159°
2026-04-27 23:57 -28.10610 -64.26547 36974 ft 499 kts 159°
2026-04-27 23:57 -28.16568 -64.22502 36966 ft 498 kts 159°
2026-04-27 23:58 -28.22444 -64.18508 36968 ft 497 kts 158°
2026-04-27 23:58 -28.28262 -64.14549 36977 ft 496 kts 158°
2026-04-27 23:59 -28.34179 -64.10519 36961 ft 496 kts 158°
2026-04-27 23:59 -28.40085 -64.06493 36964 ft 494 kts 158°
2026-04-28 00:00 -28.45976 -64.02474 36961 ft 493 kts 158°
2026-04-28 00:00 -28.51853 -63.98456 36961 ft 493 kts 158°
2026-04-28 00:01 -28.57688 -63.94461 36963 ft 492 kts 157°
2026-04-28 00:01 -28.63542 -63.90448 36966 ft 491 kts 157°
2026-04-28 00:02 -28.69389 -63.86434 36965 ft 490 kts 157°
2026-04-28 00:02 -28.75227 -63.82422 36966 ft 489 kts 157°
2026-04-28 00:03 -28.81049 -63.78417 36968 ft 488 kts 156°
2026-04-28 00:03 -28.86854 -63.74393 36970 ft 488 kts 156°
2026-04-28 00:04 -28.95531 -63.68348 36968 ft 487 kts 156°
2026-04-28 00:05 -29.01310 -63.64318 36970 ft 486 kts 156°
2026-04-28 00:05 -29.07048 -63.60312 36972 ft 486 kts 156°
2026-04-28 00:06 -29.12824 -63.56276 36971 ft 486 kts 156°
2026-04-28 00:06 -29.18584 -63.52243 36971 ft 485 kts 156°
2026-04-28 00:07 -29.24342 -63.48208 36967 ft 485 kts 156°
2026-04-28 00:07 -29.30088 -63.44175 36966 ft 484 kts 156°
2026-04-28 00:08 -29.35837 -63.40136 36963 ft 484 kts 155°
2026-04-28 00:08 -29.41574 -63.36100 36961 ft 484 kts 155°
2026-04-28 00:09 -29.47302 -63.32062 36963 ft 483 kts 155°
2026-04-28 00:09 -29.52984 -63.28036 36957 ft 483 kts 155°
2026-04-28 00:10 -29.58695 -63.23980 36960 ft 482 kts 155°
2026-04-28 00:10 -29.64396 -63.19927 36956 ft 482 kts 155°
2026-04-28 00:11 -29.70096 -63.15870 36957 ft 481 kts 155°
2026-04-28 00:11 -29.75788 -63.11814 36955 ft 481 kts 155°
2026-04-28 00:12 -29.81477 -63.07754 36953 ft 481 kts 155°
2026-04-28 00:12 -29.87151 -63.03699 36953 ft 480 kts 155°
2026-04-28 00:13 -29.92827 -62.99638 36948 ft 480 kts 155°
2026-04-28 00:13 -29.98494 -62.95578 36953 ft 479 kts 155°
2026-04-28 00:14 -30.04127 -62.91536 36953 ft 479 kts 155°
2026-04-28 00:14 -30.09790 -62.87468 36950 ft 479 kts 155°
2026-04-28 00:15 -30.15448 -62.83398 36950 ft 479 kts 155°
2026-04-28 00:15 -30.21106 -62.79320 36951 ft 479 kts 155°
2026-04-28 00:16 -30.26761 -62.75240 36950 ft 479 kts 155°
2026-04-28 00:16 -30.32415 -62.71155 36949 ft 479 kts 155°
2026-04-28 00:17 -30.38063 -62.67069 36945 ft 479 kts 155°
2026-04-28 00:17 -30.43712 -62.62978 36948 ft 479 kts 155°
2026-04-28 00:18 -30.49364 -62.58880 36949 ft 479 kts 155°
2026-04-28 00:18 -30.55010 -62.54781 36952 ft 478 kts 155°
2026-04-28 00:19 -30.60651 -62.50679 36941 ft 479 kts 155°
2026-04-28 00:19 -30.66293 -62.46570 36942 ft 479 kts 155°
2026-04-28 00:20 -30.71931 -62.42459 36943 ft 478 kts 155°
2026-04-28 00:20 -30.77564 -62.38346 36945 ft 478 kts 155°
2026-04-28 00:21 -30.83200 -62.34242 36940 ft 478 kts 155°
2026-04-28 00:21 -30.88843 -62.30145 36942 ft 478 kts 155°
2026-04-28 00:22 -30.94476 -62.26050 36946 ft 477 kts 155°
2026-04-28 00:22 -31.00106 -62.21949 36939 ft 477 kts 155°
2026-04-28 00:23 -31.05733 -62.17844 36943 ft 477 kts 155°
2026-04-28 00:23 -31.11362 -62.13735 36940 ft 477 kts 155°
2026-04-28 00:24 -31.16951 -62.09650 36945 ft 477 kts 155°
2026-04-28 00:24 -31.22570 -62.05527 36947 ft 477 kts 155°
2026-04-28 00:25 -31.28170 -62.01369 36945 ft 477 kts 155°
2026-04-28 00:25 -31.33759 -61.97207 36945 ft 476 kts 155°
2026-04-28 00:26 -31.39350 -61.93044 36945 ft 476 kts 155°
2026-04-28 00:26 -31.44932 -61.88883 36945 ft 476 kts 155°
2026-04-28 00:27 -31.50517 -61.84714 36941 ft 476 kts 155°
2026-04-28 00:27 -31.56092 -61.80545 36941 ft 475 kts 154°
2026-04-28 00:28 -31.61667 -61.76366 36940 ft 475 kts 154°
2026-04-28 00:28 -31.67241 -61.72180 36939 ft 475 kts 154°
2026-04-28 00:29 -31.72773 -61.68020 36937 ft 475 kts 154°
2026-04-28 00:29 -31.78334 -61.63833 36939 ft 474 kts 154°
2026-04-28 00:30 -31.83891 -61.59643 36944 ft 474 kts 154°
2026-04-28 00:30 -31.89448 -61.55449 36941 ft 475 kts 154°
2026-04-28 00:31 -31.95005 -61.51248 36931 ft 474 kts 154°
2026-04-28 00:31 -31.99622 -61.47754 36935 ft 474 kts 154°
2026-04-28 00:32 -32.05208 -61.43523 36941 ft 474 kts 154°
2026-04-28 00:32 -32.10718 -61.39343 36938 ft 474 kts 154°
2026-04-28 00:33 -32.16258 -61.35134 36936 ft 474 kts 154°
2026-04-28 00:33 -32.21791 -61.30925 36935 ft 473 kts 154°
2026-04-28 00:34 -32.27308 -61.26722 36935 ft 473 kts 154°
2026-04-28 00:34 -32.32830 -61.22510 36934 ft 473 kts 154°
2026-04-28 00:35 -32.38351 -61.18292 36936 ft 472 kts 154°
2026-04-28 00:35 -32.43866 -61.14073 36936 ft 472 kts 154°
2026-04-28 00:36 -32.49378 -61.09851 36934 ft 472 kts 154°
2026-04-28 00:36 -32.54886 -61.05625 36930 ft 471 kts 154°